Tracking 18876 objects as of 15-Dec-2017
HD Live streaming from Space Station
objects crossing your sky now

DMSP 5D-2 F11 DEB

Track DMSP 5D-2 F11 DEB now!
10-day predictions


NORAD ID: 29070
Int'l Code: 1991-082BR
Perigee: 782.4 km
Apogee: 801.3 km
Inclination: 98.8 °
Period: 100.6 minutes
Semi major axis: 7162 km
RCS: 0.0089 m2 (small)
Launch date: November 28, 1991
Source: United States (US)
Launch site: AIR FORCE WESTERN TEST RANGE (AFWTR)

Note: This is SATELLITE DEBRIS
aabbcc
Your satellite tracking list
Your tracking list is empty




NASA's NSSDC Master Catalog

Two Line Element Set (TLE):
1 29070U 91082BR  17348.50562790 +.00001144 +00000-0 +44179-3 0  9993
2 29070 098.7689 011.4524 0013181 345.8600 014.2212 14.32108094684534
Source of the keplerian elements: AFSPC